Wind_Speed
70 70 71 72 71 71 71 72 74 75 74 73 72 71 71 73 75 77 79 80 81 82 83 84 86 87 88 89 90 90 91 92 94 95 96 97 98 98 99 100 101 102 102 102 103 103 104 104 105 107 108 109 110 111 112 113 114 115 115 116 117 119 120 120 121 121 122 122 122 123 123 123 124 124 123 123 123 123 123 124 123 123 123 123 123
65 66 66 67 68 69 69 70 71 73 74 75 75 74 73 72 71 72 74 77 78 79 79 80 81 81 82 84 85 86 87 88 89 90 91 92 93 93 94 95 96 98 99 100 101 101 102 102 103 104 105 106 107 108 109 110 112 113 113 114 115 116 118 119 120 121 121 122 122 123 124 124 125 125 125 125 125 125 126 126 126 126 126 127 127
60 60 62 61 62 65 67 68 69 71 72 74 75 74 73 71 70 69 68 70 73 75 76 77 78 79 79 80 81 82 83 84 84 85 86 87 88 89 89 90 91 92 93 95 96 97 98 98 99 100 101 102 103 104 105 106 108 109 110 111 111 112 114 115 116 118 119 120 120 121 122 123 124 124 125 125 126 126 126 127 128 128 128 129 129
55 55 57 57 57 59 62 65 67 68 69 70 71 71 70 69 68 67 66 66 67 70 71 73 75 76 76 77 77 78 79 79 80 81 82 83 84 85 86 87 88 88 89 90 92 93 94 95 96 96 97 98 98 99 100 100 101 102 103 105 106 107 109 111 112 113 115 116 117 118 119 119 120 121 122 122 122 122 123 123 124 125 125 126 127
50 51 51 52 53 53 56 59 61 63 64 66 67 68 67 67 66 66 66 65 65 65 66 68 71 73 73 74 74 75 76 77 78 78 79 79 80 81 81 82 83 84 85 86 87 88 89 90 91 92 93 93 94 94 95 96 97 97 98 99 100 101 103 104 106 107 109 110 111 112 113 114 114 115 115 115 114 115 115 115 116 116 117 119 120
43 44 44 45 47 48 49 51 54 56 58 62 63 63 64 63 63 63 62 62 62 62 62 63 64 67 69 70 71 71 72 72 73 74 76 77 77 77 78 78 79 80 80 81 82 83 84 85 86 87 88 89 90 91 91 92 93 94 94 95 96 97 98 98 99 101 102 103 105 105 106 107 108 108 108 107 107 108 109 109 109 109 110 112 113
34 36 37 39 40 41 43 45 48 50 54 57 57 56 57 57 57 57 57 57 57 58 58 58 59 61 63 64 66 67 68 69 69 70 72 74 75 75 75 75 76 77 78 79 80 80 81 82 83 84 85 85 86 86 87 88 89 89 90 91 92 93 94 94 95 96 97 99 100 100 101 102 103 104 104 104 104 105 105 105 105 105 106 108 109
25 28 31 33 34 36 38 41 43 45 49 52 52 53 53 53 53 53 53 52 52 53 54 55 55 56 57 59 60 62 63 65 66 67 69 70 72 72 73 73 73 74 75 76 77 78 79 79 80 81 82 82 82 83 83 84 85 86 86 87 88 89 90 90 91 92 94 96 97 98 98 99 99 100 101 102 102 102 102 101 101 102 104 105 105
15 17 20 24 26 29 32 34 36 37 40 42 45 47 47 47 48 48 49 49 49 49 50 50 51 52 53 54 56 58 59 61 62 64 65 66 67 68 69 69 70 71 72 73 74 75 76 77 77 78 79 79 80 80 80 81 82 83 84 85 86 86 87 88 89 90 92 93 94 95 96 96 96 97 98 100 100 100 99 98 99 100 101 102 103
10 12 13 14 16 18 22 25 27 29 31 32 34 36 38 39 41 42 43 44 45 45 46 47 48 49 50 51 52 54 56 57 59 60 61 62 63 65 66 66 67 68 69 70 71 72 73 74 74 75 76 77 77 78 78 80 81 82 83 84 85 86 86 87 88 89 91 92 93 93 94 94 94 95 96 97 98 98 97 97 97 98 99 99 100
9 10 10 10 10 12 14 17 19 20 22 24 26 28 30 32 34 35 37 38 39 40 41 42 43 44 46 48 49 50 51 52 54 55 57 58 60 61 63 64 64 65 67 68 69 70 71 72 73 74 74 75 76 77 78 79 81 82 83 83 85 85 86 86 87 89 91 92 92 94 94 94 94 95 96 96 96 96 96 96 97 97 98 99 99
8 8 8 9 10 12 13 14 14 15 16 18 20 22 24 26 28 29 31 32 33 34 35 36 38 39 41 43 45 46 47 49 50 51 53 55 56 58 60 61 63 64 65 66 67 68 69 70 72 73 74 74 76 77 78 80 81 82 83 84 85 86 87 87 88 90 92 92 93 94 94 94 94 95 95 95 95 95 95 96 96 96 97 98 98
8 8 6 8 10 12 13 13 13 14 14 15 18 20 22 24 25 26 27 28 29 31 33 34 36 37 39 41 43 44 45 46 47 49 50 52 54 56 58 59 61 62 63 65 66 67 68 70 71 72 74 75 76 78 79 80 82 83 84 85 86 87 88 88 89 91 92 92 92 92 93 93 93 94 94 93 93 93 94 95 95 95 96 96 97
6 6 5 6 7 9 11 13 14 15 15 17 20 23 23 23 23 24 25 27 28 30 32 34 36 37 39 40 42 43 43 45 46 48 49 51 53 55 57 58 60 61 63 64 66 67 69 70 71 73 74 75 76 77 79 80 81 82 83 84 85 87 87 87 88 89 91 91 91 92 93 93 93 94 94 93 93 94 94 95 95 95 96 96 96
4 4 4 5 6 7 8 11 13 16 18 20 22 22 21 21 22 23 24 26 27 29 31 33 35 37 38 40 41 42 44 45 47 48 50 51 53 55 57 58 60 61 63 64 66 67 68 69 71 72 73 74 76 77 77 79 81 82 82 83 85 86 86 86 88 89 90 91 91 92 92 93 93 93 94 94 94 94 95 95 96 96 96 97 97
8 8 8 9 9 9 9 10 11 13 15 17 19 20 21 21 22 23 24 26 28 30 31 33 35 37 39 40 42 43 45 46 47 49 50 52 53 55 56 58 59 61 62 64 65 67 68 69 70 72 73 74 75 76 77 78 79 80 80 82 83 84 84 85 86 87 88 89 90 90 91 91 91 91 92 92 92 93 94 94 95 95 96 96 97
13 14 14 15 16 15 14 14 14 15 17 18 20 21 23 24 25 27 28 29 31 32 34 36 37 39 40 41 42 43 44 46 47 48 50 52 53 55 56 58 59 61 63 64 65 66 67 68 69 70 71 71 72 73 74 74 76 77 77 79 81 81 82 83 84 85 86 86 87 89 89 89 89 90 90 91 91 92 93 93 93 94 94 95 96
15 17 18 18 18 18 17 17 17 18 20 22 23 25 26 27 28 30 31 32 33 34 35 36 37 38 39 40 41 42 44 45 47 49 51 52 54 55 57 58 59 60 61 62 62 63 64 65 65 66 67 68 69 70 72 72 74 74 76 78 79 80 81 83 84 85 85 86 87 88 89 90 90 90 91 92 93 93 94 94 94 94 95 95 96
18 19 19 18 17 17 17 17 18 19 21 22 24 25 26 27 28 29 30 30 31 32 33 34 35 36 37 39 40 42 44 46 48 50 52 53 54 55 56 56 56 56 57 58 59 60 61 62 63 65 66 67 68 70 71 72 73 74 75 77 78 80 82 83 83 84 85 86 87 88 90 91 91 91 92 93 94 95 96 96 96 96 97 97 97
21 21 19 17 16 16 16 17 18 20 21 22 23 24 25 26 27 27 28 29 30 31 32 34 35 37 39 41 43 44 46 47 48 49 50 50 51 51 52 52 53 54 55 57 58 59 60 61 63 64 65 66 67 68 69 71 72 73 74 75 76 78 80 81 82 83 84 85 86 87 88 90 91 91 92 93 94 94 95 96 96 97 97 98 99
20 19 17 16 16 17 18 19 20 21 22 22 23 24 25 26 27 28 29 30 31 33 35 37 39 41 43 44 44 44 44 45 45 45 46 47 48 49 50 52 53 54 55 56 57 58 59 59 60 61 63 64 65 66 67 68 69 70 72 73 74 76 77 78 79 81 82 83 84 85 86 87 88 89 90 91 92 93 94 95 95 96 96 97 98
16 16 15 16 17 19 20 21 22 23 24 24 25 26 26 27 28 30 32 34 36 38 40 41 43 43 42 41 40 40 40 41 42 43 45 46 48 49 51 52 52 53 54 54 55 55 56 56 57 58 59 60 62 63 64 65 67 68 69 70 71 73 74 75 76 78 79 80 81 82 83 83 84 86 87 89 90 91 92 93 94 95 96 96 97
15 16 16 17 19 20 22 23 24 25 26 27 27 28 29 30 32 34 36 38 40 41 42 41 40 38 37 36 37 38 39 41 42 44 45 46 48 49 50 51 51 51 51 51 51 52 52 53 54 55 56 57 59 60 61 63 64 65 66 67 68 69 70 71 73 74 76 77 78 79 80 81 82 83 84 86 87 88 89 91 92 93 94 95 95
18 19 19 19 20 21 23 24 25 26 27 27 29 31 33 35 36 38 39 39 39 39 37 36 34 33 34 35 37 39 40 41 43 44 45 47 48 49 49 49 48 48 47 47 48 48 49 50 51 52 53 54 56 57 59 60 61 62 63 64 65 66 67 69 70 71 73 74 76 77 78 79 80 81 82 84 85 86 87 88 89 90 91 92 93
21 22 21 20 20 21 22 23 24 26 28 31 33 36 38 38 38 38 37 36 35 33 31 31 31 33 35 36 38 39 41 42 44 45 46 47 48 48 47 45 44 44 44 44 45 46 47 48 49 50 50 52 53 55 57 58 59 59 60 61 62 63 64 66 67 68 69 71 72 74 75 76 77 78 80 82 83 84 85 86 87 88 89 90 91
19 20 20 20 20 22 23 25 27 30 33 36 38 38 38 37 35 34 32 31 29 29 29 31 32 34 35 37 38 39 42 43 44 45 47 48 47 45 43 42 41 41 42 43 43 44 45 46 47 48 50 51 53 55 57 58 58 58 58 59 59 60 61 62 63 64 66 67 69 70 71 72 73 75 77 79 80 82 83 84 85 86 88 89 89
19 19 20 22 24 26 28 30 33 35 36 37 37 35 34 32 30 29 28 27 27 29 31 32 33 34 35 37 39 41 43 44 45 46 47 46 44 41 39 39 40 40 41 41 42 42 43 44 46 48 51 53 54 55 57 57 58 58 58 58 58 58 58 59 60 61 62 63 64 65 66 67 69 71 73 75 77 78 79 80 82 83 85 86 87
25 25 26 28 29 31 32 34 35 36 35 34 32 30 28 27 27 27 27 28 29 30 32 32 33 34 36 38 40 42 43 44 45 47 46 43 40 38 38 38 38 39 39 40 41 42 43 45 47 49 52 54 55 56 56 56 56 55 56 56 56 55 55 55 56 57 58 59 60 61 62 63 65 67 69 71 72 74 75 76 78 79 81 82 83
30 30 31 32 33 33 34 34 34 32 30 28 27 26 25 25 26 27 28 29 30 31 32 32 33 35 37 40 41 42 43 44 45 46 43 39 36 36 37 37 37 38 39 39 41 43 45 47 49 51 53 55 56 57 57 56 54 53 53 53 52 52 51 51 52 53 55 55 57 57 58 59 61 63 65 67 68 69 71 72 74 75 77 78 79
31 32 32 32 32 32 32 30 28 26 25 25 24 24 25 25 27 29 30 30 30 31 31 32 34 36 39 40 41 42 43 44 44 43 40 36 35 35 36 36 37 37 38 40 42 44 46 48 50 53 55 56 57 58 56 54 52 51 50 49 48 49 49 49 50 51 52 54 55 55 56 57 58 59 61 63 64 65 66 67 68 70 71 72 74
28 28 28 28 28 27 26 25 24 24 24 24 24 24 25 27 29 30 30 30 30 31 31 33 35 37 39 40 41 42 43 44 43 40 36 34 34 34 35 36 37 37 39 41 43 45 47 49 52 54 55 56 57 57 55 53 51 50 48 46 46 47 47 48 49 50 51 52 53 53 54 54 54 55 57 60 61 62 62 63 63 64 65 66 66
23 23 23 23 23 22 22 22 23 23 23 24 24 25 26 28 29 30 30 30 30 31 32 34 36 37 39 40 41 42 43 43 41 37 34 33 33 33 35 36 37 38 40 43 45 46 48 50 53 54 55 56 57 58 56 53 51 49 47 45 45 45 46 47 47 48 49 50 50 51 51 51 51 51 53 55 57 59 59 60 60 60 60 60 60
20 20 20 20 20 21 21 22 23 23 23 24 25 26 27 28 29 30 30 30 31 31 32 35 37 38 39 40 42 43 43 42 39 35 32 32 32 33 35 36 37 40 42 44 46 47 49 52 54 56 57 58 59 59 56 53 50 49 47 45 44 44 45 46 46 47 47 47 48 49 49 49 49 49 49 50 52 53 55 57 58 57 56 55 54
18 18 19 19 19 20 21 22 23 23 24 25 26 27 28 28 29 30 30 30 31 32 34 36 38 39 40 41 43 43 43 41 37 33 31 31 32 33 34 36 38 41 43 46 47 49 51 54 56 57 58 58 59 59 56 53 49 48 46 45 44 44 45 46 46 45 45 45 46 46 46 45 44 44 44 44 46 47 50 52 54 53 52 50 49
18 18 18 18 19 20 21 22 23 24 25 26 27 27 27 28 29 30 30 31 32 33 35 37 38 39 40 42 43 43 42 39 35 31 30 30 31 33 34 36 39 41 44 46 48 51 53 55 57 58 59 58 58 58 56 52 49 47 46 44 44 44 44 44 44 43 43 42 43 43 41 39 38 38 39 39 39 41 43 45 48 48 46 44 43
18 18 18 19 20 20 22 23 24 25 26 27 27 27 28 29 30 31 31 32 33 35 36 38 38 39 41 42 42 42 41 37 33 29 29 30 31 33 34 37 39 41 44 46 49 52 55 57 59 60 59 58 57 57 56 52 49 47 45 44 43 42 43 43 42 41 40 39 38 38 36 35 34 34 34 34 35 36 38 39 41 41 40 38 38
18 18 19 19 20 21 23 24 26 27 27 28 28 29 29 30 31 32 32 33 35 36 37 38 38 39 41 41 42 41 39 35 31 28 28 30 31 33 35 37 39 42 44 46 49 52 55 58 60 60 59 58 56 56 55 53 50 47 46 44 43 42 43 43 42 41 39 37 36 35 34 33 33 33 33 33 33 34 35 35 35 34 33 31 31
18 19 19 20 21 22 24 25 26 27 28 29 29 30 30 31 31 32 33 34 36 37 37 38 38 40 40 40 40 40 37 33 30 27 28 29 31 32 34 36 39 42 44 46 49 53 56 58 60 60 60 59 57 55 54 53 51 48 46 44 44 44 45 44 42 41 39 38 36 34 34 35 35 34 33 33 33 33 34 34 33 31 29 27 25
19 20 20 21 22 23 24 25 26 27 28 28 29 30 30 31 32 32 34 35 36 37 37 38 39 39 39 38 39 38 35 32 28 26 27 28 30 32 34 37 39 42 44 47 50 54 58 60 60 60 60 60 59 57 55 53 52 50 48 46 45 45 45 44 42 41 40 38 36 35 36 37 37 35 34 33 33 33 33 33 31 29 26 24 22
21 21 21 22 23 24 25 26 27 29 29 29 29 30 31 32 33 34 35 35 36 37 38 38 38 39 38 37 37 36 33 31 27 24 26 28 29 32 34 37 39 42 45 47 51 55 58 60 62 62 62 63 64 63 60 57 53 51 50 49 48 46 45 44 43 42 40 38 38 38 39 38 37 36 34 33 32 32 31 29 26 23 21 20 18
23 23 23 24 26 26 27 28 29 31 31 31 31 31 32 33 34 35 36 36 37 38 38 38 38 38 38 36 35 34 32 30 26 23 25 27 29 32 34 37 39 42 45 47 51 54 56 58 61 64 66 66 67 67 66 63 59 55 52 49 48 48 46 44 43 41 39 39 39 40 39 38 36 34 33 32 31 30 28 26 22 19 16 14 12
27 27 28 29 28 28 29 30 31 33 33 33 32 33 33 34 35 36 36 37 37 38 38 39 38 37 36 35 33 31 30 28 25 23 24 26 29 32 34 36 39 42 44 47 50 53 56 58 61 64 67 68 69 70 69 67 63 59 54 50 48 48 47 44 42 40 38 39 38 39 38 37 35 33 31 29 28 26 24 23 21 19 16 12 9
29 30 31 31 30 29 30 31 32 34 34 34 34 35 35 35 36 36 37 37 37 38 38 38 37 35 34 33 31 29 29 27 23 22 24 25 28 31 33 36 38 41 44 47 50 54 57 60 62 64 66 67 70 71 71 69 66 62 58 54 50 49 48 45 41 38 37 37 37 38 38 37 35 31 28 26 25 24 22 22 21 20 18 14 11
31 32 32 31 30 30 31 32 33 34 35 35 36 36 35 35 34 34 35 35 36 36 37 36 34 32 31 29 27 27 27 26 22 21 23 25 28 31 33 35 38 41 44 47 50 54 57 60 64 65 65 66 69 70 71 71 68 64 61 56 51 49 47 45 41 36 34 35 36 37 37 36 33 30 28 26 25 24 23 22 22 21 19 17 14
31 31 32 32 32 32 32 33 34 34 34 35 35 34 33 31 31 31 31 32 32 32 33 32 30 28 26 25 24 25 27 25 21 20 22 25 28 31 33 35 37 41 45 47 49 52 56 60 64 65 65 65 67 69 70 71 69 66 62 57 52 48 46 43 39 37 35 34 35 36 36 34 32 30 28 27 25 24 25 24 23 22 21 19 17
31 31 33 34 34 33 33 33 33 33 33 34 33 31 30 29 29 29 28 29 29 28 27 26 25 22 21 21 22 25 26 23 20 20 22 25 28 31 33 35 37 41 44 46 48 51 54 59 63 65 65 66 67 68 69 70 70 67 63 59 54 49 46 44 40 36 34 34 35 36 35 32 30 29 27 27 26 26 27 25 23 23 23 22 21
32 33 35 35 33 32 31 31 31 32 32 32 31 30 29 28 28 28 27 26 25 23 22 20 20 20 19 20 22 25 25 22 19 19 21 25 28 31 33 34 38 41 43 45 47 50 53 58 61 63 65 67 68 69 70 70 70 69 66 62 57 51 47 45 42 37 33 32 33 34 34 33 30 28 26 26 27 28 28 25 21 22 24 25 24
33 34 35 33 31 30 30 30 31 31 31 30 30 29 27 27 27 27 25 23 22 20 19 18 18 19 19 21 23 25 24 20 18 19 21 24 28 31 33 35 38 41 43 44 46 49 52 57 60 62 64 67 68 70 70 71 71 70 69 65 61 55 48 44 42 39 35 32 31 32 33 33 31 27 26 26 29 30 28 25 21 19 21 23 25
33 33 32 30 29 29 30 30 30 29 29 29 27 26 26 26 25 24 23 21 20 20 20 19 19 19 21 23 24 25 22 19 17 18 21 24 27 30 33 35 38 41 43 44 46 48 51 55 59 61 64 66 68 69 70 71 71 71 70 68 65 60 54 47 42 40 37 34 32 32 32 33 32 28 25 26 28 30 28 24 21 18 17 18 22
29 28 28 28 28 28 29 29 28 27 27 26 24 23 23 23 23 22 22 22 23 23 24 23 22 22 23 24 24 23 21 18 16 18 20 23 26 30 33 35 37 40 42 44 46 48 50 54 57 60 62 64 67 69 70 70 71 71 71 70 68 65 60 54 47 42 39 35 31 30 31 33 34 30 27 27 28 28 26 22 20 18 16 14 16
24 25 26 26 27 27 27 26 25 26 26 24 22 21 21 22 22 22 22 24 26 27 28 27 26 25 25 24 23 22 19 17 16 18 19 22 26 29 32 35 37 39 41 43 45 47 49 52 55 59 61 64 66 68 69 69 70 71 71 71 70 68 65 59 52 45 40 37 32 29 29 30 32 31 30 30 28 26 23 19 18 18 16 14 12
Wind_Direction
258 257 256 256 255 253 252 251 251 252 253 254 254 255 257 257 257 256 256 257 257 257 257 257 257 258 258 258 259 259 260 260 261 261 261 261 262 262 263 263 263 264 264 264 265 265 265 265 265 266 266 266 266 266 266 266 266 266 266 266 266 267 267 267 267 266 266 266 266 266 266 266 266 266 266 266 266 266 267 267 267 266 266 266 266
258 257 256 256 255 253 251 250 250 250 252 252 254 256 257 257 258 258 258 257 257 257 257 257 258 258 258 259 259 259 260 261 261 261 261 262 262 263 263 264 264 264 264 265 265 265 266 266 266 267 267 267 267 267 267 267 267 267 267 267 267 267 267 267 267 267 267 267 267 267 266 266 266 266 266 266 267 267 267 267 267 267 267 267 266
258 256 254 255 254 252 250 249 250 250 251 252 254 256 257 257 257 258 259 258 258 258 258 258 258 258 259 259 259 260 260 261 261 261 262 262 263 263 264 264 265 265 265 266 266 266 266 267 267 267 268 268 268 268 268 268 268 268 267 267 267 267 267 267 267 267 267 266 266 266 266 266 266 266 266 266 267 267 267 267 267 267 267 266 266
256 255 253 253 253 251 249 249 249 250 251 252 254 255 255 256 256 257 258 259 258 258 258 258 258 258 258 259 260 260 261 261 262 262 262 263 264 264 265 265 266 266 267 267 267 268 268 268 268 268 269 269 269 269 268 268 268 268 268 268 267 267 267 267 267 267 267 267 266 266 266 267 267 266 266 266 267 267 267 267 267 266 266 266 266
253 252 251 250 250 249 248 247 248 249 250 251 252 253 254 256 256 257 258 258 259 259 259 259 258 258 258 259 260 261 262 263 263 263 263 264 265 266 266 266 267 267 267 268 268 269 269 269 269 269 269 269 269 269 269 269 268 268 268 268 268 268 268 267 267 267 267 267 267 267 267 267 267 267 267 267 267 267 267 266 266 266 266 266 265
250 249 248 248 247 247 246 245 246 247 249 250 251 252 254 255 256 257 258 258 259 259 260 260 260 259 259 260 261 262 263 264 265 265 264 264 265 266 267 267 267 267 268 268 269 269 269 269 269 269 269 269 269 269 269 269 269 269 269 269 269 269 269 268 268 268 268 267 267 267 267 267 267 267 267 267 267 267 266 266 266 266 266 265 265
248 247 246 246 247 246 245 245 245 247 248 249 250 252 253 254 255 257 258 259 259 260 261 261 261 261 262 262 263 263 264 265 265 265 265 264 265 266 267 268 268 268 268 269 269 270 270 270 270 270 270 271 271 271 271 270 270 270 270 270 270 270 270 269 269 269 269 268 268 267 267 267 268 268 267 267 266 266 266 266 266 266 265 265 264
248 247 248 248 248 247 246 246 246 248 250 252 252 253 254 256 257 258 260 261 262 262 262 263 263 264 265 265 265 265 265 265 265 265 265 265 265 266 267 268 269 269 269 270 270 271 271 271 272 272 272 272 272 272 272 272 272 271 271 271 271 271 270 270 270 270 269 269 268 268 267 267 267 268 267 267 266 266 265 265 265 264 264 264 264
253 253 253 252 250 248 246 246 247 249 251 254 256 256 258 259 260 261 262 263 264 265 265 265 266 266 266 266 266 266 266 266 266 266 266 266 266 267 269 270 270 271 271 271 272 272 272 273 273 273 273 273 273 273 273 273 272 272 272 272 271 271 271 271 271 270 270 269 269 269 268 268 268 267 267 267 266 266 265 265 264 264 264 264 263
271 268 265 261 255 253 251 249 249 251 254 258 261 262 262 261 262 263 264 265 265 266 266 267 267 267 267 267 268 268 268 268 268 268 269 269 269 270 271 271 272 272 273 273 273 273 274 274 274 274 275 275 275 275 274 274 273 273 273 273 272 272 272 272 271 271 271 270 270 270 269 269 268 268 268 267 267 267 266 265 265 264 264 263 263
293 282 279 274 263 259 260 258 256 257 259 261 262 263 264 264 265 267 268 268 268 268 267 267 268 268 269 269 269 270 270 271 271 271 271 271 271 272 272 272 273 273 274 274 275 275 275 275 276 276 276 276 276 276 275 275 275 275 274 274 273 273 272 272 272 272 271 271 271 271 270 270 269 269 268 268 268 267 267 266 265 264 264 263 263
316 298 278 263 255 255 260 263 263 263 264 267 268 268 271 272 272 272 272 272 271 269 268 268 268 269 270 270 271 271 272 272 272 272 272 272 273 273 273 273 274 274 275 275 276 276 276 277 277 277 277 277 276 276 276 276 276 275 275 274 274 273 273 272 272 272 271 271 271 271 271 271 270 270 269 268 268 268 267 266 265 264 264 263 263
323 319 295 271 264 263 264 268 271 272 274 277 280 279 278 278 276 276 275 274 272 270 269 268 268 270 271 273 273 274 274 274 274 274 274 275 275 275 275 276 276 276 277 277 277 277 277 277 277 277 277 276 276 276 276 275 275 275 274 274 274 273 273 272 272 272 272 271 271 271 271 270 270 269 269 268 268 268 267 266 266 265 264 263 263
319 329 329 318 303 290 278 275 278 279 274 271 274 277 278 277 276 275 275 274 274 273 272 271 271 271 273 275 276 276 277 277 277 277 278 278 278 278 278 278 279 279 279 279 278 278 278 278 278 277 277 277 276 276 276 275 275 275 274 274 274 273 273 273 272 272 272 271 271 270 270 269 269 268 268 268 268 267 266 266 265 265 264 263 262
320 332 343 341 326 308 288 278 276 274 268 264 266 270 273 274 273 273 273 273 273 273 273 273 273 274 275 276 278 279 279 280 280 280 280 280 280 280 280 280 280 280 280 280 280 280 279 279 279 279 278 278 277 277 276 276 276 275 275 275 274 273 273 273 272 272 271 271 271 270 269 269 268 268 268 267 267 266 266 265 265 264 264 263 263
325 323 326 326 321 311 296 285 277 273 269 266 267 270 272 273 273 273 273 273 273 274 274 275 276 277 278 280 281 282 282 282 282 282 282 282 281 281 281 281 281 281 281 281 281 281 280 280 280 279 279 279 278 278 277 276 276 276 276 275 274 274 274 273 272 272 271 271 271 270 269 269 269 268 268 267 266 266 265 265 264 264 264 263 263
323 316 312 311 312 308 299 291 284 281 278 277 276 277 277 277 277 277 277 277 278 278 279 279 280 281 282 283 284 284 284 284 284 283 283 283 282 282 282 282 282 282 282 281 281 281 281 280 280 280 279 279 279 278 278 277 276 276 276 275 275 274 274 273 272 271 271 271 271 270 270 269 269 269 268 267 267 266 265 264 264 264 263 263 263
323 319 310 304 304 304 300 296 291 287 285 284 283 283 283 282 282 282 282 283 283 283 284 284 284 285 285 285 285 285 285 285 285 284 284 284 283 283 283 283 283 283 283 283 283 282 282 282 282 281 281 280 280 279 279 278 277 277 276 276 275 275 274 273 273 272 272 272 271 271 270 270 269 268 268 267 267 266 266 265 264 263 263 262 262
320 320 315 306 303 302 300 300 298 296 294 292 290 288 288 287 287 287 287 288 288 287 287 287 287 287 287 287 288 287 287 287 286 286 286 285 286 286 286 286 286 286 286 286 285 285 285 285 284 284 283 282 282 281 281 280 279 278 278 277 277 276 275 275 274 274 273 273 272 271 271 271 270 269 268 267 266 265 265 265 264 263 263 262 261
316 317 314 309 307 305 303 303 303 303 301 298 295 294 293 291 290 290 289 290 290 290 290 291 291 292 292 292 292 291 290 290 289 289 289 289 290 291 291 291 290 290 289 289 288 288 287 287 287 286 286 285 285 284 283 283 282 281 280 279 278 277 276 276 275 274 273 273 272 271 271 271 270 270 269 268 267 266 265 264 263 263 262 262 261
315 316 314 312 312 310 307 307 307 306 304 301 299 298 296 294 293 292 292 294 295 296 296 297 297 297 297 296 295 294 293 292 292 293 294 295 295 295 295 294 294 293 292 291 290 290 290 290 290 290 289 289 288 287 287 286 284 283 282 281 280 279 278 277 276 275 274 273 272 271 270 269 269 269 268 267 267 266 266 265 264 262 261 260 260
316 314 312 311 312 309 307 307 308 308 307 304 303 302 301 301 300 300 300 300 300 300 300 299 299 298 298 297 297 296 296 296 297 298 299 300 300 300 299 298 297 296 295 294 294 293 294 293 293 293 292 292 291 290 290 288 287 286 285 283 282 281 280 279 278 277 276 275 274 272 271 270 269 268 267 266 266 265 265 264 264 263 262 261 260
309 308 305 305 308 309 308 308 308 308 308 307 305 305 305 305 304 303 302 301 300 299 299 299 299 299 299 299 298 298 299 300 301 303 304 304 304 303 302 301 300 298 298 298 298 297 297 297 297 297 297 296 296 295 293 292 290 289 287 286 285 283 282 280 279 277 276 276 275 274 273 271 270 269 268 267 266 265 264 263 263 262 262 261 260
300 303 302 300 305 308 308 307 306 307 307 306 306 305 305 304 303 302 301 301 300 300 300 301 301 302 301 301 301 302 303 305 306 307 307 307 307 306 305 303 302 302 302 302 301 301 302 302 303 302 302 301 300 299 297 295 293 291 290 288 286 284 282 280 279 278 276 275 274 273 273 272 271 270 269 268 267 266 265 264 264 263 262 261 261
304 306 306 301 302 305 305 305 305 306 306 305 305 305 305 305 304 304 303 302 302 303 303 304 304 303 303 303 304 306 307 308 309 310 310 310 310 308 307 306 306 306 306 306 306 307 308 309 308 308 307 306 305 304 302 300 297 295 293 290 288 286 284 281 280 278 277 276 275 274 273 272 272 271 270 269 268 267 266 266 265 264 263 262 261
310 307 304 301 302 303 304 304 305 306 306 306 307 307 307 306 306 305 305 305 305 306 306 306 305 304 304 306 308 309 310 311 312 313 315 314 312 311 310 310 310 310 310 311 313 314 314 313 313 314 314 313 312 311 309 306 303 300 297 294 292 289 287 285 283 281 279 278 277 275 274 273 272 271 270 269 268 268 267 266 265 265 264 263 262
309 304 301 300 301 302 304 306 307 307 308 308 308 308 308 308 308 307 307 307 308 308 308 306 305 305 307 309 311 312 312 314 316 318 317 316 314 313 313 313 313 314 316 317 318 317 317 318 319 320 320 319 317 315 313 310 307 304 301 298 295 293 290 288 286 284 282 280 279 277 276 275 273 272 271 270 269 268 267 266 266 265 264 264 263
305 304 303 303 303 305 308 309 310 310 309 309 310 310 310 310 310 309 309 309 310 309 307 306 307 309 311 313 314 315 316 317 319 320 319 317 316 315 315 316 317 319 321 321 321 322 323 324 324 325 324 323 321 319 316 313 310 307 304 302 299 297 294 292 289 287 285 283 281 280 278 276 275 273 272 271 270 269 268 267 266 266 265 264 264
302 303 304 305 307 309 310 311 311 311 311 311 312 314 314 313 311 310 309 310 310 308 306 308 311 314 315 316 316 317 319 320 321 321 319 318 317 317 319 320 322 323 323 324 326 327 328 328 329 329 328 327 326 323 320 317 314 310 307 305 303 301 299 296 294 292 290 288 286 284 282 280 279 277 276 274 273 271 270 269 268 267 266 265 264
301 302 304 306 308 310 310 311 312 313 314 316 317 317 315 313 311 309 310 310 310 308 309 312 316 317 317 318 319 320 322 323 322 321 320 319 319 321 322 324 325 326 327 329 331 332 332 333 333 333 332 331 330 327 324 321 318 314 312 311 309 306 304 302 300 298 296 294 292 291 289 287 285 284 282 280 277 275 273 271 270 269 268 267 266
306 307 309 310 311 312 313 315 316 318 319 320 319 317 315 312 310 309 310 311 310 310 313 316 318 319 319 320 321 323 324 325 324 322 320 320 322 324 326 327 327 329 331 334 335 335 336 336 336 335 335 334 333 330 327 325 322 320 318 317 315 312 310 308 305 303 301 300 298 296 294 292 289 287 285 284 282 281 279 277 275 273 271 270 269
319 318 318 318 319 320 321 322 323 323 322 321 319 316 314 311 310 311 312 312 312 313 316 318 319 319 320 322 324 325 326 326 325 323 322 323 326 327 328 329 331 333 336 337 337 338 339 339 339 338 338 337 337 335 332 330 328 326 325 323 321 318 315 312 310 308 306 305 303 302 300 297 294 291 289 287 285 284 283 281 278 276 274 272 270
330 330 330 330 330 329 328 327 327 325 323 320 317 315 313 312 312 313 314 313 312 314 316 317 318 320 322 323 325 327 327 327 326 323 324 326 328 330 330 331 334 337 339 340 340 341 342 342 343 342 342 341 341 339 337 335 334 332 330 328 326 323 320 317 315 314 312 311 309 308 305 302 298 294 291 289 287 285 284 282 281 279 277 275 273
343 344 343 341 338 335 332 330 327 325 322 319 318 316 315 314 314 315 314 312 312 313 314 316 318 320 322 324 326 327 328 328 326 324 325 328 330 331 331 334 337 340 341 342 342 344 345 346 346 346 345 345 344 342 340 339 339 337 335 333 331 328 326 322 320 319 317 316 314 312 309 305 301 298 294 292 291 289 287 286 285 283 281 279 276
354 351 348 344 339 336 332 330 327 325 323 321 320 318 317 316 315 314 313 311 311 311 314 317 320 321 323 325 326 328 328 328 327 325 326 329 331 332 333 336 340 342 343 344 345 346 347 348 349 349 348 347 347 346 344 343 343 342 340 337 335 332 329 325 324 324 323 321 317 314 313 311 308 305 302 300 297 294 291 289 287 285 284 282 279
355 351 347 343 339 336 333 331 329 327 326 324 322 319 317 316 315 313 311 309 309 312 315 319 321 321 323 325 326 327 328 328 327 326 328 332 333 333 335 339 342 343 344 345 347 348 349 351 352 351 350 350 350 349 348 347 347 346 344 341 339 336 332 331 330 330 328 324 319 316 315 314 314 312 309 308 306 302 299 295 292 290 289 284 279
353 349 346 343 340 338 336 335 333 331 329 327 324 321 318 316 314 312 311 310 311 313 316 318 320 321 323 324 326 327 328 328 327 327 331 334 335 335 337 341 343 344 345 346 348 350 351 352 353 353 353 352 353 353 352 351 350 350 349 345 343 341 339 338 337 335 333 329 325 322 322 322 322 320 318 317 315 312 308 304 302 299 295 288 280
352 349 346 344 342 341 340 339 338 336 334 331 328 325 322 319 317 315 314 313 313 315 317 318 319 321 322 324 325 327 329 329 328 329 333 335 335 335 338 342 344 345 346 347 349 351 352 354 355 355 355 355 356 357 357 356 354 354 353 350 348 347 345 343 342 340 339 337 335 334 334 333 331 328 327 326 323 320 317 316 314 310 304 297 288
354 351 348 346 344 342 341 341 340 338 337 335 332 329 326 323 321 318 316 315 315 316 317 318 319 320 321 323 325 327 329 330 329 330 334 336 336 336 340 344 345 346 347 348 351 352 353 355 356 358 358 358 359 359 0 1 360 357 356 355 354 352 349 347 345 345 345 345 345 345 345 342 338 336 334 332 330 329 327 324 320 317 312 307 299
358 355 352 349 345 342 340 339 338 337 335 334 332 329 326 323 320 318 316 315 315 315 317 318 319 319 320 322 325 327 328 330 329 330 336 338 336 337 341 344 346 347 348 349 352 353 354 355 357 359 1 2 2 2 3 4 4 2 359 358 357 355 353 350 349 350 351 351 352 351 349 345 342 340 338 338 338 337 333 329 325 322 317 313 304
358 356 352 348 345 341 339 338 337 336 334 332 329 326 323 320 318 315 314 314 314 314 315 316 316 317 318 321 324 326 328 330 329 332 339 339 336 338 341 344 346 347 348 350 352 353 354 355 358 360 2 4 5 5 5 5 6 5 3 1 358 357 356 354 353 354 355 355 354 352 348 346 345 344 343 343 343 342 339 337 339 338 333 327 314
354 352 349 346 343 341 339 338 335 334 332 330 327 324 321 318 316 314 313 312 312 312 312 313 314 315 316 319 323 325 327 331 329 333 340 339 336 338 342 345 346 347 348 350 352 353 354 355 358 0 2 5 6 7 7 7 7 6 5 4 1 359 358 357 355 356 357 356 352 348 347 349 351 350 348 346 345 347 349 350 355 359 359 357 346
351 349 346 344 342 339 337 334 332 331 330 329 326 323 321 318 315 313 311 311 310 309 310 311 312 313 314 317 322 324 328 331 331 336 340 337 335 338 342 346 346 347 349 351 352 353 354 356 358 0 3 5 7 8 8 8 8 8 7 5 3 0 359 359 357 357 356 353 350 348 349 353 356 355 353 351 353 357 2 6 12 15 15 18 22
348 347 345 343 339 336 333 332 330 329 329 328 326 324 321 318 316 314 312 312 311 311 311 312 313 313 314 318 323 325 330 332 332 337 339 335 336 338 342 346 347 349 351 352 353 354 354 356 358 1 4 6 8 9 10 10 9 9 8 7 4 1 359 358 357 357 356 352 351 351 352 356 359 359 358 357 360 5 14 21 24 28 29 31 39
345 344 343 341 338 334 332 331 329 328 329 329 327 326 324 322 321 320 318 317 315 314 313 313 315 317 318 323 325 327 332 333 331 337 338 334 336 339 343 347 349 351 352 353 353 354 355 357 359 2 5 7 8 10 11 11 12 11 10 8 6 2 0 359 357 356 355 353 352 352 355 358 2 2 360 0 5 10 18 26 32 38 43 44 48
339 337 337 337 336 334 332 330 329 330 331 331 331 330 329 328 327 326 325 322 319 318 317 317 320 322 325 328 328 330 333 331 330 336 338 335 337 340 344 348 350 352 353 354 354 354 356 359 1 3 5 6 8 10 11 12 13 13 12 11 8 4 1 1 0 356 353 352 351 353 356 359 3 3 360 360 6 10 12 20 36 46 52 57 60
333 331 332 333 334 333 331 330 331 333 334 335 335 335 335 334 332 331 329 327 325 324 324 324 326 329 332 333 331 332 333 329 329 337 338 336 338 341 345 348 351 353 354 355 355 355 358 0 2 5 6 6 7 8 10 12 13 14 14 13 11 8 3 0 1 359 355 351 349 351 354 357 1 2 360 358 359 3 4 11 32 50 58 65 70
328 326 328 331 332 332 331 332 335 337 339 340 340 341 340 339 336 334 333 332 332 332 331 333 334 335 335 334 334 334 332 328 330 337 337 337 340 343 346 349 351 354 354 355 356 357 359 2 4 6 7 7 7 7 8 10 12 14 15 15 14 12 8 2 359 358 356 352 349 349 351 353 356 356 358 356 354 357 2 8 21 43 61 69 75
321 323 327 330 332 332 333 336 339 342 344 344 346 347 347 347 345 344 343 344 344 343 341 341 340 337 333 333 334 333 330 326 330 337 337 339 342 344 347 349 352 354 354 355 356 358 1 3 5 7 7 7 6 7 7 9 10 12 14 15 15 14 12 7 2 358 356 353 348 346 346 347 349 352 356 354 352 353 359 7 14 29 51 69 80
323 326 330 332 332 334 337 340 344 348 349 350 353 356 358 0 2 2 1 359 357 352 346 341 337 332 329 330 331 331 327 324 329 337 337 339 342 344 347 349 351 353 354 355 357 359 2 4 6 7 8 7 6 6 7 8 9 11 12 14 15 15 14 11 6 0 357 354 348 342 341 342 343 347 350 349 349 349 356 6 13 23 35 52 77
339 339 338 336 337 339 341 344 349 353 354 356 0 4 7 7 7 7 4 360 356 351 345 338 332 328 326 327 329 328 325 324 330 337 337 338 341 344 346 349 350 351 353 355 357 359 1 3 6 7 7 8 7 6 6 7 9 10 11 13 14 15 15 13 10 4 357 353 350 343 338 336 337 341 346 349 349 348 354 4 12 23 30 36 62
Height
10758 10760 10761 10762 10764 10765 10767 10768 10769 10769 10770 10771 10771 10772 10772 10773 10773 10774 10775 10775 10776 10777 10777 10778 10778 10779 10779 10780 10780 10780 10781 10781 10781 10782 10782 10782 10782 10782 10782 10783 10783 10783 10782 10782 10781 10780 10780 10779 10779 10778 10777 10777 10776 10775 10774 10773 10772 10772 10772 10771 10770 10769 10768 10768 10768 10768 10768 10768 10768 10768 10768 10768 10768 10769 10770 10772 10772 10772 10772 10772 10774 10776 10778 10778 10779
10752 10753 10754 10756 10757 10758 10760 10761 10762 10763 10764 10765 10766 10766 10767 10767 10768 10769 10769 10770 10770 10771 10771 10772 10772 10773 10773 10773 10774 10774 10775 10775 10775 10775 10775 10775 10775 10775 10775 10775 10775 10775 10774 10773 10773 10772 10772 10771 10771 10770 10768 10768 10767 10766 10765 10764 10763 10762 10762 10762 10760 10759 10758 10757 10757 10756 10757 10757 10757 10756 10756 10756 10757 10758 10760 10761 10760 10761 10761 10762 10762 10764 10766 10766 10767
10745 10746 10748 10749 10750 10751 10753 10755 10756 10757 10759 10760 10760 10761 10761 10762 10763 10764 10764 10764 10765 10765 10765 10766 10767 10767 10767 10768 10768 10768 10769 10769 10769 10769 10769 10768 10768 10768 10768 10768 10767 10767 10766 10766 10765 10764 10763 10763 10762 10761 10760 10759 10759 10757 10756 10755 10754 10753 10753 10752 10751 10749 10747 10747 10746 10745 10745 10746 10746 10745 10745 10745 10746 10747 10748 10749 10750 10750 10751 10751 10751 10752 10752 10753 10754
10738 10740 10741 10743 10744 10746 10748 10750 10751 10752 10754 10754 10754 10755 10756 10757 10758 10759 10759 10759 10759 10760 10760 10760 10761 10762 10762 10763 10763 10763 10763 10763 10763 10763 10763 10762 10761 10761 10761 10761 10760 10760 10759 10758 10757 10756 10755 10755 10754 10753 10752 10751 10750 10749 10747 10746 10745 10744 10743 10742 10741 10739 10738 10736 10736 10735 10735 10734 10734 10734 10734 10734 10734 10735 10736 10738 10739 10739 10739 10739 10738 10739 10739 10739 10740
10733 10734 10736 10737 10738 10740 10743 10745 10746 10748 10749 10748 10749 10750 10751 10752 10753 10754 10755 10755 10755 10755 10755 10756 10756 10756 10757 10757 10757 10757 10757 10757 10757 10757 10757 10756 10755 10755 10754 10754 10753 10752 10751 10750 10750 10749 10748 10747 10746 10745 10744 10742 10741 10740 10739 10738 10736 10735 10733 10732 10731 10730 10729 10727 10726 10725 10725 10723 10723 10723 10723 10723 10723 10723 10725 10727 10727 10727 10726 10726 10726 10726 10727 10726 10727
10729 10730 10731 10732 10734 10736 10738 10741 10742 10743 10744 10742 10744 10747 10748 10749 10750 10750 10751 10751 10751 10751 10751 10751 10751 10752 10752 10752 10753 10753 10753 10752 10752 10751 10750 10750 10749 10748 10748 10747 10746 10746 10745 10744 10743 10742 10740 10739 10738 10737 10735 10734 10733 10732 10731 10730 10728 10727 10725 10724 10722 10721 10719 10718 10717 10715 10714 10713 10712 10714 10713 10711 10712 10712 10715 10716 10715 10714 10714 10715 10716 10716 10715 10714 10713
10726 10727 10728 10729 10731 10733 10735 10737 10738 10739 10739 10738 10741 10744 10744 10746 10746 10747 10747 10748 10748 10747 10747 10747 10747 10748 10748 10748 10748 10748 10748 10747 10746 10745 10744 10743 10743 10742 10742 10741 10740 10739 10738 10737 10736 10735 10733 10732 10731 10729 10728 10727 10726 10725 10723 10722 10720 10719 10717 10714 10712 10711 10710 10709 10707 10706 10704 10702 10702 10703 10702 10702 10702 10701 10703 10704 10703 10703 10704 10705 10706 10705 10703 10702 10702
10725 10725 10726 10728 10729 10731 10733 10734 10736 10736 10736 10736 10739 10741 10742 10743 10743 10743 10743 10744 10743 10743 10743 10744 10744 10744 10744 10744 10743 10743 10742 10741 10740 10739 10738 10738 10737 10737 10736 10735 10734 10733 10732 10731 10729 10728 10727 10725 10724 10722 10721 10720 10719 10717 10716 10714 10712 10709 10707 10705 10703 10702 10701 10699 10697 10696 10693 10691 10691 10691 10692 10693 10693 10691 10690 10691 10692 10693 10694 10695 10694 10693 10691 10691 10692
10725 10725 10726 10727 10729 10730 10731 10733 10734 10734 10734 10735 10736 10738 10739 10740 10739 10739 10739 10740 10740 10740 10740 10740 10740 10740 10739 10738 10738 10737 10736 10735 10735 10734 10733 10733 10732 10731 10730 10729 10728 10727 10726 10725 10723 10722 10720 10719 10718 10716 10714 10712 10711 10710 10708 10706 10703 10700 10698 10697 10695 10693 10692 10690 10688 10686 10683 10682 10681 10680 10681 10682 10683 10681 10678 10678 10679 10682 10684 10684 10683 10681 10681 10681 10681
10725 10725 10726 10727 10729 10730 10730 10731 10732 10733 10734 10734 10735 10736 10737 10736 10736 10736 10736 10736 10736 10736 10736 10736 10735 10735 10734 10734 10733 10732 10732 10731 10730 10730 10729 10728 10727 10726 10725 10724 10723 10722 10720 10719 10717 10716 10714 10712 10711 10709 10707 10705 10704 10702 10700 10697 10694 10692 10690 10688 10686 10684 10683 10681 10679 10676 10673 10672 10672 10670 10670 10671 10672 10670 10668 10667 10668 10670 10672 10673 10672 10671 10670 10669 10670
10726 10726 10726 10728 10729 10729 10729 10730 10731 10732 10733 10733 10733 10734 10734 10734 10734 10734 10734 10733 10734 10733 10733 10732 10731 10731 10730 10730 10729 10729 10728 10727 10726 10725 10724 10723 10722 10721 10720 10719 10718 10716 10714 10713 10712 10710 10708 10706 10704 10702 10701 10699 10697 10694 10691 10688 10686 10684 10682 10680 10677 10675 10674 10673 10671 10666 10663 10663 10661 10659 10660 10661 10661 10659 10657 10657 10657 10659 10660 10660 10659 10659 10658 10657 10658
10726 10726 10727 10727 10728 10728 10729 10729 10730 10731 10731 10732 10732 10733 10732 10732 10732 10732 10732 10731 10731 10730 10730 10729 10728 10728 10727 10727 10726 10725 10725 10723 10722 10721 10720 10719 10718 10716 10715 10714 10712 10711 10709 10708 10706 10704 10702 10700 10698 10696 10694 10692 10689 10686 10683 10681 10678 10676 10674 10671 10668 10667 10665 10664 10662 10656 10653 10653 10652 10650 10650 10651 10650 10647 10647 10647 10647 10647 10646 10646 10646 10647 10646 10646 10647
10727 10726 10727 10727 10727 10728 10728 10729 10730 10730 10731 10731 10731 10731 10731 10731 10731 10730 10730 10729 10728 10728 10727 10727 10726 10725 10725 10724 10723 10722 10721 10720 10719 10717 10716 10715 10713 10712 10710 10709 10708 10706 10704 10702 10700 10698 10696 10694 10691 10689 10687 10685 10681 10678 10676 10674 10670 10668 10665 10662 10660 10657 10655 10654 10652 10647 10643 10644 10643 10641 10639 10640 10639 10635 10635 10637 10636 10636 10635 10634 10634 10634 10635 10635 10635
10728 10728 10728 10728 10728 10728 10729 10729 10729 10730 10730 10730 10730 10730 10730 10729 10729 10728 10727 10726 10726 10725 10725 10724 10723 10723 10722 10721 10719 10718 10718 10716 10715 10714 10712 10711 10709 10707 10705 10704 10703 10700 10699 10696 10694 10692 10690 10687 10684 10681 10679 10677 10674 10671 10668 10665 10661 10659 10657 10654 10651 10647 10646 10645 10642 10639 10635 10633 10633 10631 10628 10628 10628 10625 10625 10626 10626 10625 10624 10623 10622 10622 10622 10623 10624
10729 10729 10729 10730 10730 10730 10730 10730 10729 10729 10729 10729 10729 10729 10728 10728 10727 10726 10725 10724 10724 10723 10722 10722 10721 10720 10719 10718 10716 10715 10714 10713 10711 10710 10708 10707 10705 10703 10701 10699 10697 10695 10693 10690 10687 10685 10683 10681 10677 10674 10672 10669 10666 10663 10661 10657 10653 10650 10648 10645 10641 10637 10637 10635 10632 10629 10625 10622 10621 10620 10618 10617 10616 10616 10615 10616 10615 10613 10612 10611 10610 10611 10610 10610 10611
10730 10730 10730 10730 10730 10730 10729 10729 10729 10729 10728 10728 10728 10727 10727 10726 10725 10724 10723 10723 10722 10721 10720 10719 10718 10717 10716 10715 10713 10712 10710 10709 10707 10706 10704 10702 10701 10699 10696 10695 10692 10690 10687 10685 10682 10678 10676 10674 10670 10667 10664 10661 10658 10654 10652 10650 10645 10642 10640 10635 10631 10629 10627 10625 10621 10618 10615 10612 10610 10608 10607 10606 10606 10606 10605 10605 10603 10601 10601 10600 10599 10599 10599 10598 10598
10729 10729 10729 10729 10729 10729 10729 10728 10728 10728 10727 10727 10727 10726 10725 10724 10723 10722 10721 10721 10720 10719 10718 10716 10715 10714 10713 10712 10710 10708 10707 10705 10703 10702 10700 10698 10696 10694 10692 10690 10687 10684 10681 10679 10676 10672 10669 10666 10663 10660 10657 10654 10650 10647 10644 10641 10637 10634 10632 10626 10622 10620 10617 10614 10611 10608 10606 10604 10601 10598 10596 10596 10596 10595 10593 10592 10591 10589 10589 10588 10589 10588 10588 10587 10586
10729 10728 10728 10728 10728 10728 10727 10727 10727 10727 10726 10726 10725 10724 10723 10722 10721 10720 10719 10718 10717 10716 10715 10713 10712 10711 10710 10709 10707 10705 10704 10702 10700 10697 10695 10693 10691 10689 10687 10684 10681 10678 10675 10672 10669 10665 10663 10660 10656 10653 10650 10646 10643 10639 10635 10632 10629 10626 10623 10617 10613 10611 10606 10603 10600 10598 10596 10594 10592 10588 10585 10584 10585 10584 10582 10580 10578 10577 10576 10576 10577 10577 10576 10575 10575
10727 10727 10727 10727 10727 10726 10726 10726 10725 10725 10725 10724 10723 10722 10721 10720 10719 10718 10717 10716 10715 10713 10712 10711 10710 10709 10707 10706 10704 10702 10700 10698 10695 10693 10690 10688 10686 10683 10681 10678 10675 10673 10669 10666 10663 10659 10656 10653 10649 10646 10642 10639 10635 10631 10627 10623 10620 10617 10613 10608 10605 10600 10596 10593 10590 10588 10585 10583 10580 10577 10574 10571 10571 10571 10570 10568 10566 10564 10563 10563 10563 10563 10563 10563 10563
10725 10726 10726 10726 10725 10725 10725 10725 10724 10724 10723 10722 10721 10720 10719 10718 10717 10716 10715 10713 10712 10711 10710 10708 10707 10705 10704 10702 10700 10698 10696 10693 10690 10688 10685 10683 10681 10678 10675 10672 10669 10666 10663 10660 10656 10653 10649 10646 10642 10638 10634 10630 10626 10622 10618 10614 10610 10607 10603 10599 10595 10590 10585 10583 10580 10577 10574 10571 10569 10566 10563 10560 10558 10557 10556 10554 10552 10551 10550 10550 10550 10550 10551 10550 10550
10724 10724 10724 10724 10724 10724 10724 10723 10723 10722 10721 10720 10719 10718 10717 10716 10715 10714 10713 10711 10710 10708 10707 10705 10704 10702 10700 10698 10696 10693 10691 10688 10686 10683 10681 10679 10676 10673 10670 10666 10663 10660 10657 10653 10650 10647 10643 10639 10635 10631 10627 10622 10618 10614 10609 10605 10601 10597 10592 10588 10584 10579 10576 10573 10569 10565 10562 10559 10556 10554 10552 10550 10547 10544 10543 10541 10539 10538 10536 10536 10536 10536 10537 10537 10537
10723 10723 10723 10723 10723 10723 10722 10722 10721 10720 10719 10718 10717 10716 10715 10714 10713 10711 10710 10708 10706 10705 10703 10702 10700 10698 10696 10694 10691 10689 10686 10684 10682 10679 10677 10674 10671 10667 10664 10660 10657 10654 10650 10647 10644 10640 10637 10633 10629 10625 10620 10615 10611 10606 10601 10596 10591 10587 10583 10579 10574 10570 10566 10562 10558 10553 10550 10547 10544 10542 10540 10538 10536 10533 10530 10528 10527 10526 10524 10523 10521 10521 10522 10523 10523
10722 10722 10722 10722 10721 10721 10720 10720 10719 10718 10717 10716 10715 10714 10713 10711 10710 10708 10707 10705 10703 10702 10700 10698 10696 10694 10692 10690 10688 10685 10683 10680 10678 10675 10673 10669 10666 10662 10658 10654 10651 10648 10644 10641 10638 10634 10631 10627 10623 10619 10614 10609 10604 10598 10593 10588 10583 10578 10573 10569 10564 10560 10556 10551 10547 10542 10539 10535 10532 10529 10527 10525 10524 10521 10518 10516 10514 10512 10511 10510 10509 10508 10508 10509 10509
10721 10721 10720 10720 10719 10719 10718 10717 10717 10716 10715 10714 10713 10711 10710 10708 10707 10705 10703 10701 10699 10698 10696 10694 10692 10691 10689 10686 10684 10682 10679 10677 10674 10671 10668 10665 10661 10657 10653 10649 10646 10642 10639 10636 10633 10629 10625 10621 10617 10613 10608 10602 10597 10591 10585 10579 10575 10570 10564 10559 10554 10550 10545 10540 10536 10532 10528 10524 10521 10518 10515 10513 10511 10509 10506 10503 10501 10499 10498 10497 10496 10496 10496 10496 10496
10719 10719 10718 10718 10718 10717 10716 10715 10715 10714 10713 10712 10710 10708 10707 10705 10703 10701 10699 10697 10696 10694 10692 10691 10689 10687 10685 10683 10681 10678 10676 10673 10670 10667 10664 10660 10656 10652 10648 10644 10641 10638 10635 10631 10628 10624 10620 10616 10611 10606 10601 10596 10590 10583 10576 10570 10565 10560 10555 10549 10544 10540 10534 10529 10525 10522 10518 10513 10510 10507 10504 10502 10500 10497 10493 10490 10488 10486 10485 10484 10483 10483 10482 10482 10482
10717 10717 10717 10717 10716 10715 10715 10714 10713 10712 10710 10709 10707 10705 10703 10701 10699 10697 10696 10694 10693 10691 10690 10688 10686 10684 10682 10680 10678 10675 10672 10669 10666 10663 10660 10655 10651 10647 10643 10640 10637 10634 10631 10627 10623 10620 10615 10611 10606 10600 10595 10589 10583 10576 10568 10561 10555 10550 10544 10539 10534 10529 10523 10519 10515 10511 10507 10503 10499 10496 10493 10491 10488 10485 10481 10477 10475 10474 10472 10471 10471 10470 10469 10468 10468
10717 10716 10716 10715 10715 10714 10712 10711 10710 10709 10707 10705 10704 10702 10700 10698 10696 10695 10693 10692 10691 10689 10687 10685 10683 10681 10679 10677 10675 10672 10669 10666 10663 10659 10655 10651 10647 10643 10640 10636 10633 10630 10627 10623 10620 10616 10611 10606 10600 10595 10589 10582 10575 10568 10561 10554 10547 10541 10534 10528 10524 10519 10513 10509 10505 10500 10496 10492 10488 10485 10483 10480 10476 10472 10468 10465 10463 10461 10460 10459 10458 10457 10456 10455 10455
10715 10715 10714 10713 10712 10711 10709 10708 10707 10706 10704 10702 10701 10699 10697 10696 10694 10692 10691 10690 10688 10686 10684 10683 10681 10679 10677 10675 10672 10669 10666 10662 10659 10655 10651 10647 10643 10640 10636 10633 10630 10627 10624 10620 10616 10611 10606 10601 10595 10589 10583 10576 10568 10561 10554 10546 10540 10533 10526 10519 10514 10509 10504 10500 10495 10490 10486 10482 10478 10475 10473 10469 10465 10461 10457 10454 10452 10450 10449 10447 10446 10445 10444 10443 10442
10712 10712 10711 10710 10709 10708 10707 10705 10704 10703 10702 10700 10699 10697 10695 10693 10692 10690 10689 10687 10686 10684 10682 10680 10679 10677 10674 10672 10669 10665 10662 10659 10656 10652 10647 10644 10640 10637 10634 10630 10627 10624 10621 10617 10612 10607 10602 10596 10590 10584 10577 10569 10561 10553 10546 10539 10532 10525 10518 10512 10506 10500 10495 10491 10486 10481 10476 10472 10468 10465 10462 10458 10455 10451 10447 10444 10442 10440 10438 10436 10434 10433 10432 10431 10430
10710 10709 10709 10708 10707 10706 10705 10704 10702 10701 10700 10698 10697 10695 10693 10691 10690 10688 10686 10685 10684 10682 10680 10678 10676 10674 10671 10668 10666 10662 10659 10656 10652 10648 10644 10641 10638 10634 10631 10628 10625 10621 10618 10613 10608 10603 10597 10592 10586 10579 10571 10563 10555 10547 10539 10531 10524 10517 10510 10504 10498 10492 10487 10482 10477 10472 10467 10463 10459 10455 10451 10448 10445 10441 10437 10433 10430 10428 10427 10425 10423 10421 10420 10418 10417
10708 10708 10707 10706 10705 10704 10703 10702 10700 10699 10698 10696 10695 10693 10691 10690 10688 10686 10684 10683 10681 10680 10678 10676 10674 10671 10668 10665 10663 10659 10656 10653 10649 10645 10641 10638 10635 10632 10628 10625 10622 10619 10614 10610 10605 10599 10594 10588 10582 10574 10566 10559 10550 10541 10532 10525 10517 10510 10503 10497 10491 10485 10480 10474 10469 10464 10459 10454 10450 10445 10442 10439 10435 10432 10428 10423 10419 10417 10415 10413 10411 10410 10408 10406 10406
10707 10706 10705 10705 10704 10702 10701 10700 10699 10697 10696 10694 10693 10691 10690 10688 10685 10684 10682 10681 10679 10678 10676 10674 10671 10668 10665 10663 10660 10657 10654 10650 10646 10642 10639 10636 10633 10629 10626 10623 10619 10615 10611 10607 10602 10596 10591 10585 10578 10570 10562 10553 10544 10534 10526 10518 10510 10503 10497 10491 10485 10479 10473 10468 10462 10457 10452 10447 10442 10438 10433 10430 10426 10423 10419 10414 10410 10407 10404 10401 10399 10397 10396 10395 10394
10706 10705 10704 10703 10702 10701 10700 10698 10697 10696 10694 10693 10691 10690 10688 10685 10683 10682 10680 10679 10677 10676 10674 10671 10669 10666 10663 10660 10657 10654 10651 10647 10643 10639 10636 10633 10631 10627 10624 10620 10616 10612 10608 10603 10598 10593 10587 10581 10573 10565 10556 10548 10538 10529 10520 10513 10505 10497 10491 10485 10480 10474 10468 10462 10456 10451 10446 10441 10436 10431 10426 10422 10418 10415 10411 10407 10403 10399 10395 10391 10388 10386 10385 10384 10384
10705 10704 10703 10702 10701 10699 10698 10697 10695 10694 10693 10691 10689 10688 10686 10683 10681 10679 10678 10676 10675 10673 10671 10669 10666 10663 10660 10657 10654 10651 10648 10645 10641 10637 10634 10632 10629 10626 10622 10618 10614 10610 10605 10600 10595 10589 10583 10577 10569 10561 10553 10544 10535 10525 10516 10509 10502 10494 10487 10481 10475 10469 10463 10457 10451 10446 10441 10436 10431 10426 10421 10416 10412 10408 10405 10401 10397 10393 10389 10384 10380 10377 10376 10376 10376
10704 10703 10702 10701 10700 10698 10697 10695 10694 10693 10691 10689 10687 10685 10683 10681 10679 10677 10676 10674 10672 10670 10668 10666 10663 10660 10658 10655 10652 10649 10646 10642 10638 10635 10633 10630 10627 10624 10620 10616 10612 10608 10603 10597 10592 10586 10580 10574 10566 10558 10550 10542 10533 10523 10513 10506 10499 10491 10483 10477 10471 10465 10459 10453 10448 10442 10437 10433 10427 10422 10417 10412 10407 10403 10399 10396 10392 10388 10384 10379 10374 10370 10369 10369 10368
10703 10702 10701 10700 10698 10697 10696 10694 10692 10691 10689 10687 10685 10683 10681 10679 10677 10675 10673 10671 10669 10668 10666 10663 10661 10658 10655 10652 10649 10646 10643 10640 10636 10634 10631 10628 10625 10622 10618 10614 10610 10606 10601 10595 10590 10584 10578 10571 10563 10555 10548 10540 10531 10521 10511 10503 10495 10488 10480 10474 10469 10463 10456 10450 10444 10439 10434 10429 10425 10420 10414 10409 10405 10400 10396 10391 10387 10383 10378 10373 10368 10365 10363 10362 10361
10702 10701 10700 10698 10697 10696 10694 10692 10691 10689 10687 10685 10683 10681 10679 10677 10675 10672 10670 10668 10666 10664 10663 10660 10658 10655 10652 10650 10646 10643 10641 10638 10634 10632 10629 10626 10623 10619 10616 10612 10608 10604 10599 10593 10588 10582 10576 10569 10561 10553 10546 10538 10530 10520 10510 10500 10493 10486 10478 10472 10466 10460 10453 10446 10441 10435 10431 10427 10422 10417 10412 10407 10402 10398 10393 10388 10383 10378 10373 10368 10364 10360 10357 10355 10354
10701 10700 10698 10697 10696 10694 10693 10691 10689 10687 10685 10683 10681 10679 10677 10675 10673 10670 10668 10665 10663 10661 10659 10657 10655 10652 10649 10647 10644 10641 10638 10635 10632 10630 10627 10624 10621 10618 10614 10610 10606 10602 10597 10592 10586 10580 10574 10567 10560 10552 10543 10535 10528 10519 10510 10500 10490 10483 10476 10470 10463 10456 10449 10443 10438 10432 10428 10423 10419 10414 10409 10405 10400 10395 10390 10386 10380 10375 10370 10364 10360 10356 10352 10350 10349
10700 10699 10697 10696 10694 10693 10691 10689 10687 10685 10683 10681 10679 10676 10674 10672 10670 10668 10665 10662 10660 10658 10656 10654 10652 10649 10647 10644 10642 10639 10636 10633 10630 10628 10625 10622 10619 10616 10612 10608 10604 10599 10595 10590 10584 10578 10570 10564 10557 10550 10542 10532 10524 10516 10508 10500 10489 10481 10474 10467 10461 10454 10447 10441 10435 10430 10426 10421 10417 10413 10408 10403 10399 10394 10389 10384 10379 10373 10368 10362 10357 10353 10349 10346 10345
10699 10698 10696 10695 10693 10691 10689 10687 10685 10683 10680 10678 10676 10673 10671 10669 10666 10664 10662 10659 10657 10654 10652 10651 10649 10646 10643 10641 10639 10636 10634 10631 10629 10626 10623 10620 10617 10614 10610 10606 10602 10597 10592 10587 10582 10576 10569 10562 10554 10546 10538 10529 10520 10510 10502 10495 10488 10480 10472 10463 10457 10452 10447 10440 10434 10429 10425 10421 10417 10412 10408 10403 10399 10394 10388 10383 10378 10372 10367 10362 10357 10352 10348 10345 10343
10698 10697 10695 10693 10691 10689 10687 10685 10683 10680 10678 10675 10673 10670 10668 10666 10663 10661 10658 10656 10653 10651 10649 10647 10645 10643 10640 10638 10636 10634 10631 10629 10626 10624 10622 10618 10615 10612 10608 10604 10600 10595 10590 10585 10581 10575 10569 10562 10554 10544 10535 10526 10517 10507 10499 10491 10484 10477 10470 10463 10457 10451 10446 10440 10434 10429 10425 10421 10417 10412 10409 10404 10399 10394 10389 10384 10379 10373 10368 10362 10357 10352 10348 10345 10342
10697 10695 10693 10691 10689 10687 10685 10682 10680 10677 10675 10672 10670 10667 10664 10662 10659 10657 10654 10652 10649 10647 10645 10643 10641 10639 10637 10635 10634 10631 10629 10627 10624 10622 10619 10617 10614 10610 10607 10603 10598 10594 10589 10584 10579 10574 10567 10561 10553 10544 10534 10525 10516 10507 10498 10489 10482 10475 10469 10463 10457 10451 10445 10440 10434 10429 10426 10422 10418 10414 10410 10405 10400 10395 10390 10385 10381 10375 10369 10363 10357 10352 10348 10345 10343
10696 10694 10691 10689 10687 10684 10682 10680 10677 10675 10672 10669 10666 10664 10661 10658 10655 10653 10650 10648 10646 10643 10642 10640 10638 10636 10634 10632 10631 10629 10627 10624 10622 10620 10617 10615 10612 10609 10605 10601 10597 10593 10588 10583 10577 10571 10565 10558 10551 10544 10535 10526 10517 10508 10498 10489 10482 10475 10468 10461 10455 10450 10444 10439 10435 10430 10427 10424 10420 10416 10411 10406 10401 10397 10393 10388 10382 10377 10371 10365 10359 10354 10350 10347 10344
10694 10692 10689 10687 10685 10682 10680 10677 10675 10672 10669 10666 10663 10660 10657 10654 10652 10649 10646 10644 10642 10640 10637 10636 10634 10632 10631 10629 10628 10626 10624 10622 10620 10618 10616 10613 10610 10607 10603 10600 10595 10591 10586 10581 10576 10570 10564 10557 10550 10543 10536 10528 10519 10510 10501 10492 10482 10474 10467 10461 10455 10450 10444 10439 10436 10432 10429 10426 10421 10417 10412 10408 10403 10399 10394 10389 10384 10378 10373 10367 10362 10357 10353 10350 10347
10692 10690 10688 10685 10682 10680 10677 10674 10672 10669 10666 10663 10660 10657 10654 10651 10648 10646 10643 10641 10639 10637 10634 10632 10631 10629 10628 10627 10625 10623 10621 10619 10618 10616 10614 10611 10608 10605 10601 10598 10594 10590 10585 10580 10575 10569 10563 10557 10549 10542 10535 10529 10521 10514 10505 10496 10486 10478 10470 10463 10457 10452 10448 10443 10438 10433 10430 10427 10423 10419 10414 10410 10405 10401 10396 10391 10386 10380 10375 10370 10365 10360 10356 10353 10351
10691 10688 10686 10683 10680 10677 10674 10671 10669 10666 10663 10660 10657 10654 10650 10647 10645 10643 10641 10638 10636 10634 10632 10629 10628 10627 10626 10624 10623 10621 10619 10617 10616 10614 10612 10609 10606 10603 10600 10596 10592 10588 10584 10579 10574 10569 10563 10556 10549 10542 10535 10528 10521 10515 10507 10499 10490 10482 10474 10466 10460 10454 10448 10444 10439 10435 10431 10428 10424 10420 10416 10412 10408 10404 10399 10394 10389 10384 10379 10374 10369 10365 10360 10358 10355
10688 10686 10683 10680 10677 10674 10671 10669 10666 10664 10660 10657 10654 10650 10647 10645 10642 10640 10638 10636 10634 10632 10630 10628 10626 10625 10624 10623 10621 10619 10617 10615 10614 10612 10610 10608 10604 10601 10598 10595 10591 10587 10583 10579 10574 10568 10563 10556 10549 10542 10535 10527 10520 10513 10507 10500 10493 10485 10477 10469 10463 10456 10450 10444 10440 10436 10433 10430 10426 10422 10417 10414 10410 10406 10402 10398 10393 10388 10383 10378 10374 10369 10365 10362 10360
10685 10683 10680 10677 10674 10672 10669 10667 10664 10661 10658 10654 10651 10648 10645 10643 10640 10638 10636 10634 10632 10630 10628 10627 10625 10623 10622 10621 10619 10617 10615 10613 10612 10610 10608 10606 10603 10599 10596 10593 10589 10586 10582 10578 10573 10568 10562 10556 10549 10542 10535 10528 10521 10513 10506 10500 10493 10486 10479 10472 10465 10459 10453 10447 10441 10437 10434 10431 10428 10424 10420 10416 10413 10409 10405 10401 10397 10392 10387 10383 10378 10374 10370 10367 10364
10682 10680 10677 10674 10671 10669 10667 10664 10662 10659 10655 10652 10649 10646 10644 10642 10639 10637 10635 10633 10631 10629 10627 10625 10624 10622 10620 10618 10617 10615 10613 10611 10610 10608 10606 10604 10601 10598 10595 10591 10588 10584 10580 10576 10572 10567 10562 10555 10549 10542 10535 10528 10522 10514 10507 10500 10493 10486 10480 10473 10467 10461 10455 10449 10444 10438 10434 10430 10427 10424 10421 10418 10415 10412 10407 10403 10400 10396 10392 10387 10383 10379 10375 10372 10368
10679 10677 10674 10671 10669 10667 10664 10662 10660 10657 10654 10651 10648 10646 10643 10641 10639 10636 10634 10632 10631 10629 10626 10624 10622 10620 10618 10616 10614 10612 10611 10609 10608 10606 10604 10602 10599 10596 10593 10590 10586 10583 10579 10575 10571 10566 10561 10555 10549 10542 10536 10530 10523 10516 10508 10501 10494 10487 10480 10473 10467 10461 10455 10449 10443 10438 10434 10431 10428 10425 10422 10419 10416 10414 10410 10406 10402 10400 10396 10392 10388 10384 10380 10376 10373
10676 10674 10671 10669 10667 10665 10662 10660 10658 10655 10652 10650 10648 10645 10643 10641 10639 10636 10634 10632 10630 10627 10625 10622 10619 10618 10616 10614 10612 10610 10608 10607 10606 10604 10603 10601 10598 10595 10592 10588 10585 10582 10578 10574 10570 10565 10560 10555 10549 10543 10536 10530 10524 10517 10510 10503 10495 10488 10481 10475 10468 10461 10455 10450 10445 10440 10435 10431 10429 10426 10423 10420 10418 10415 10412 10408 10405 10402 10399 10396 10392 10389 10385 10382 10378